User: anonymous   Login
Location: Unspecified
(0.0000°N, 0.0000°E)
Time: 00:59:54
(UTC+00:00)
Language:

KORSAT-7 - Orbit

View from above orbital plane
View from above orbital plane
View from above satellite
View from above satellite

Ground track
Ground track

The orbit is defined by the following mean orbital elements,

1 58463U          26145.65264308 +.00000000 +00000-0 +14123-3 0 00005
2 58463  97.6294 210.3654 0026647  40.9363 319.3855 15.00766857    05
Epoch (UTC): 25 May 2026 15:39:48
Eccentricity: 0.0026647
inclination: 97.6294°
perigee height: 546 km
apogee height: 583 km
right ascension of ascending node: 210.3654°
argument of perigee: 40.9363°
revolutions per day: 15.00766857
mean anomaly at epoch: 319.3855°

The dashed part of the orbit path shows where the satellite is in the earth's shadow,  

DLR